SCP
0 0 0 0 0 0 0 0 0 0 0 0 0 0 0 0 0 0 0 0 0 0 0 0 0 0 0 0 0 0 0 0 0 0 0 0 0 0 0 0 0 0 0
0 0 0 0 0 0 0 0 0 0 0 0 0 0 0 0 0 0 0 0 0 0 0 0 0 0 0 0 0 0 0 0 0 0 0 0 0 0 0 0 0 0 0
0 0 0 0 0 0 0 0 0 0 0 0 0 0 0 0 0 0 0 0 0 0 0 0 0 0 0 0 0 0 0 0 0 0 0 0 0 0 0 0 0 0 0
0 0 0 0 0 0 0 0 0 0 0 0 0 0 0 0 0 0 0 0 0 0 0 0 0 0 0 0 0 0 0 0 0 0 0 0 0 0 0 0 0 0 0
1 0 0 0 0 0 0 0 0 0 0 0 0 0 0 0 0 0 0 0 0 0 0 0 0 0 0 0 0 0 0 0 0 0 0 0 0 0 0 0 0 0 0
1 1 1 1 0 0 0 0 0 0 0 0 0 0 0 0 0 0 0 0 0 0 0 0 0 0 0 0 0 0 0 0 0 0 0 0 0 0 0 0 0 0 0
1 1 1 1 0 0 0 0 0 0 0 0 0 0 0 0 0 0 0 0 0 0 0 0 0 0 0 0 0 0 0 0 0 0 0 0 0 0 0 0 0 0 0
1 1 1 0 0 0 0 0 0 0 0 0 0 0 0 0 0 0 0 0 0 0 0 0 0 0 0 0 0 0 0 0 0 0 0 0 0 0 0 0 0 0 0
1 1 0 0 0 0 0 0 0 0 0 0 0 0 0 0 0 0 0 0 0 0 0 0 0 0 0 0 0 0 0 0 0 0 0 0 0 0 0 0 0 0 0
1 0 0 0 0 0 0 0 0 0 0 0 0 0 0 0 0 0 0 0 0 0 0 0 0 0 0 0 0 0 0 0 0 0 0 0 0 0 0 0 0 0 0
0 0 0 0 0 0 0 0 0 0 0 0 0 0 0 0 0 0 0 0 0 0 0 0 0 0 0 0 0 0 0 0 0 0 0 0 0 0 0 0 0 0 0
0 0 0 0 0 0 0 0 0 0 0 0 0 0 0 0 0 0 0 0 0 0 0 0 0 0 0 0 0 0 0 0 0 0 0 0 0 0 0 0 0 0 0
0 0 0 0 0 0 0 0 0 0 0 0 0 0 0 0 0 0 0 0 0 0 0 0 0 0 0 0 0 0 0 0 0 0 0 0 0 0 0 0 0 0 0
0 0 0 0 0 0 0 0 0 0 0 0 0 0 0 0 0 0 0 0 0 0 0 0 0 0 0 0 0 0 0 0 0 0 0 0 0 0 0 0 0 0 0
0 0 0 0 0 0 0 0 0 0 0 0 0 0 0 0 0 0 0 0 0 0 0 0 0 0 0 0 0 0 0 0 0 0 0 0 0 0 0 0 0 0 0
0 0 0 0 0 0 0 0 0 0 0 0 0 0 0 0 0 0 0 0 0 0 0 0 0 0 0 0 0 0 0 0 0 0 0 0 0 0 0 0 0 0 0
0 0 0 0 0 0 0 0 0 0 0 0 0 0 0 0 0 0 0 0 0 0 0 0 0 0 0 0 0 0 0 0 0 0 0 0 0 0 0 0 0 0 0
0 0 0 0 0 0 0 0 0 0 0 0 0 0 0 0 0 0 0 0 0 0 0 0 0 0 0 0 0 0 0 0 0 0 0 0 0 0 0 0 0 0 0
0 0 0 0 0 0 0 0 0 0 0 0 0 0 0 0 0 0 0 0 0 0 0 0 0 0 0 0 0 0 0 0 0 0 0 0 0 0 0 0 0 0 0
0 0 0 0 0 0 0 0 0 0 0 0 0 0 0 0 0 0 0 0 0 0 0 0 0 0 0 0 0 0 0 0 0 0 0 0 0 0 0 0 0 0 0
0 0 0 0 0 0 0 0 0 0 0 0 0 0 0 0 0 0 0 0 0 0 0 0 0 0 0 0 0 0 0 0 0 0 0 0 0 0 0 0 0 0 0
0 0 0 0 0 0 0 0 0 0 0 0 0 0 0 0 0 0 0 0 0 0 0 0 0 0 0 0 0 0 0 0 0 0 0 0 0 0 0 0 0 0 0
0 0 0 0 0 0 0 0 0 0 0 0 0 0 0 0 0 0 0 0 0 0 0 0 0 0 0 0 0 0 0 0 0 0 0 0 0 0 0 0 0 0 0
0 0 0 0 0 0 0 0 0 0 0 0 0 0 0 0 0 0 0 0 0 0 0 0 0 0 0 0 0 0 0 0 0 0 0 0 0 0 0 0 0 0 0
0 0 0 0 0 0 0 0 0 0 0 0 0 0 0 0 0 0 0 0 0 0 0 0 0 0 0 0 0 0 0 0 0 0 0 0 0 0 0 0 0 0 0
-0 -0 -0 -0 0 0 0 0 0 0 0 0 0 0 0 0 0 0 0 0 0 0 0 0 0 0 0 0 0 0 0 0 -0 0 0 0 0 0 0 0 0 0 0
Wind_Speed
5 4 4 3 3 3 2 3 3 3 3 4 4 5 5 5 5 5 5 5 6 5 5 6 6 6 5 5 5 5 6 6 6 5 3 1 2 3 1 2 2 1 2
5 5 4 3 3 2 2 2 2 2 3 3 4 4 5 5 5 5 6 5 5 5 5 5 5 4 5 5 5 6 5 5 6 6 4 2 2 3 2 2 2 1 1
6 5 4 3 3 2 2 2 1 2 2 3 3 3 3 4 4 5 5 5 4 5 4 4 4 4 5 4 5 5 4 4 4 5 4 2 2 2 2 2 1 1 1
6 5 5 4 3 2 2 1 1 1 2 2 2 3 3 3 3 3 3 3 3 3 3 2 3 3 4 4 4 4 4 4 3 3 4 3 2 2 2 2 2 1 1
6 5 5 4 3 2 2 2 2 1 1 1 1 1 2 2 1 2 2 2 2 2 1 1 1 2 3 2 2 2 2 2 2 2 2 2 2 1 2 2 2 1 1
5 5 5 4 4 3 3 3 2 2 1 1 1 1 1 1 3 3 1 0 0 0 0 1 1 1 3 4 4 5 5 2 2 2 1 1 2 2 2 2 1 1 1
5 4 4 4 4 3 3 3 3 2 2 2 2 2 3 4 5 4 2 1 2 1 1 1 1 2 1 2 3 4 6 7 4 2 2 2 2 2 2 1 1 1 1
5 5 4 4 4 3 3 4 3 3 3 3 3 4 4 5 6 5 4 3 3 3 3 3 2 2 3 1 3 5 6 6 5 4 3 4 4 4 3 2 0 1 2
5 5 4 4 4 4 4 4 3 3 4 4 4 4 4 5 6 4 2 3 4 5 4 4 3 3 5 3 4 5 6 5 8 11 10 9 10 10 7 2 1 0 1
6 5 5 4 4 4 5 4 4 4 4 5 5 5 5 5 7 6 3 3 4 3 4 5 8 6 6 4 4 5 5 4 5 6 7 7 7 9 9 6 4 3 2
6 6 5 5 5 6 5 5 5 5 5 5 6 6 6 6 7 7 5 2 3 3 4 4 6 9 9 8 6 6 5 4 5 6 6 6 6 6 7 7 6 5 3
7 7 6 6 5 5 6 5 5 5 6 5 5 6 5 5 6 7 8 6 4 4 4 5 7 9 10 10 8 7 5 3 4 5 5 5 5 5 5 6 6 6 5
7 7 7 7 6 5 6 6 5 4 4 4 4 5 4 5 6 8 8 8 6 5 7 10 8 7 8 8 9 6 4 4 5 5 5 5 5 4 3 3 4 4 4
8 7 6 6 7 7 5 5 5 4 4 4 4 4 4 5 4 4 4 5 6 6 6 8 8 7 7 7 6 5 5 5 4 5 4 4 3 3 3 3 3 2 3
8 7 7 7 7 8 8 7 6 7 5 4 4 4 4 5 5 6 4 5 4 4 4 4 5 5 5 6 6 5 5 4 4 4 4 4 3 3 3 3 3 2 3
7 7 6 6 6 7 8 9 15 12 14 14 12 8 8 9 8 10 10 10 8 4 4 6 6 6 6 6 5 5 5 5 5 4 4 4 4 3 4 3 3 3 4
8 7 6 6 6 6 6 7 8 10 14 15 14 12 11 9 9 9 9 8 5 3 5 6 6 6 5 5 5 5 6 6 4 4 4 4 4 4 4 4 4 4 4
9 8 7 6 6 6 6 6 6 7 7 8 9 11 10 9 8 6 4 5 5 4 6 6 6 5 5 5 5 5 5 5 4 4 4 4 4 4 4 4 5 6 5
8 7 6 7 7 7 6 6 7 8 7 7 7 7 7 7 7 5 2 3 6 6 6 6 5 5 5 5 5 4 4 5 5 4 4 4 4 4 4 4 4 3 4
7 9 7 7 7 7 6 7 7 7 7 6 6 6 6 5 5 5 4 4 5 5 5 5 5 5 4 4 3 3 3 4 4 3 4 4 4 4 4 4 4 4 4
8 9 8 7 7 6 6 6 6 6 6 6 6 5 3 3 5 5 5 5 4 5 4 4 4 3 3 2 3 3 3 3 3 3 3 3 3 3 3 3 3 4 4
8 7 7 7 7 7 6 6 6 6 7 7 7 6 1 2 4 4 5 4 4 4 3 3 3 3 3 3 2 2 2 3 3 2 2 2 2 3 3 3 4 4 4
8 8 8 7 7 7 6 6 5 6 6 6 5 5 4 3 4 4 4 4 3 3 3 2 2 3 3 2 2 2 3 3 3 3 3 3 3 3 3 3 4 5 5
8 8 8 7 7 6 6 6 5 5 5 5 4 4 4 3 3 3 3 3 3 3 2 2 2 4 3 2 2 2 3 4 4 3 4 4 4 4 4 4 5 5 5
7 7 7 7 6 6 6 5 5 5 5 4 4 4 4 3 3 3 3 2 2 2 2 1 1 2 2 2 2 4 5 4 5 7 4 4 4 4 5 5 5 5 6
7 7 6 6 6 5 5 5 5 5 4 4 4 3 3 3 3 3 2 2 2 2 2 1 1 1 0 0 3 4 2 1 3 5 6 5 5 4 5 5 6 6 6
Wind_Direction
166 167 165 167 178 184 190 198 201 208 210 216 219 219 220 219 216 215 226 229 234 238 243 244 246 258 263 260 253 252 253 255 259 267 256 243 240 277 272 248 239 226 135
153 155 156 157 162 171 171 188 197 204 214 217 219 221 225 223 223 223 228 231 234 240 245 251 257 253 251 261 261 257 255 256 258 264 266 250 229 242 248 261 269 251 100
147 149 144 151 152 158 162 177 190 197 211 213 211 217 228 231 230 231 233 238 243 247 249 252 262 266 263 260 261 263 262 255 253 261 268 274 264 259 242 229 232 298 272
146 146 143 145 148 158 167 165 169 190 204 210 209 213 221 229 233 232 228 236 245 246 249 262 281 282 280 276 265 268 271 270 258 259 265 261 266 276 271 261 232 201 272
149 146 143 143 145 148 138 133 137 161 184 181 188 208 210 216 236 239 233 226 236 247 255 340 24 40 23 352 315 308 289 268 257 252 267 283 290 293 275 277 284 296 23
149 143 140 143 142 135 128 123 122 121 110 99 92 91 65 37 56 57 321 254 124 13 356 342 48 67 78 78 56 38 19 332 298 288 292 303 319 317 314 303 296 267 261
142 138 138 140 133 129 128 121 113 106 97 89 81 78 73 54 57 68 72 82 84 69 48 17 1 31 28 82 94 89 61 42 21 329 332 334 333 327 318 306 317 327 352
139 135 135 129 120 116 110 101 97 95 92 88 78 75 75 59 53 60 74 93 82 69 54 41 40 32 27 32 94 87 72 53 43 52 50 30 17 357 329 321 7 141 124
127 125 121 118 112 107 100 94 91 93 90 86 81 79 81 65 48 45 72 100 89 75 60 44 43 59 35 57 106 103 93 88 78 73 66 66 58 42 22 17 25 0 68
120 115 112 112 112 106 99 97 94 92 89 85 78 71 75 71 50 41 46 98 97 97 85 71 55 50 46 50 96 99 96 85 85 85 76 68 61 57 48 35 22 26 37
115 112 106 106 106 102 97 93 96 95 90 85 83 74 67 61 58 49 44 75 86 89 81 73 63 59 60 54 62 71 69 74 86 82 77 67 60 54 47 45 36 33 35
109 106 101 98 98 101 99 93 93 98 99 95 91 83 72 65 56 55 58 54 47 81 78 80 78 75 71 63 65 65 66 69 82 77 70 62 54 49 48 48 48 48 47
110 106 103 99 93 94 97 97 94 88 89 93 93 88 80 77 77 72 71 65 59 77 78 78 84 91 97 82 72 64 66 72 73 73 68 58 52 49 51 67 76 85 88
112 108 105 101 97 86 75 71 73 71 81 86 88 89 86 79 69 76 94 99 103 102 100 106 105 89 87 87 91 79 68 60 62 74 71 64 59 55 46 39 40 46 61
113 109 104 98 94 85 71 53 59 52 42 63 77 78 82 80 53 41 59 77 79 85 104 102 93 90 85 80 76 69 67 70 64 59 61 59 53 51 48 41 23 22 36
115 111 108 108 107 108 103 86 59 63 58 56 54 65 74 74 80 73 70 70 69 70 90 89 80 75 73 73 72 71 64 55 49 49 50 45 43 42 40 35 23 19 25
121 119 118 117 118 118 118 114 105 81 68 60 57 62 75 82 81 82 83 80 67 64 84 80 75 72 70 68 65 61 59 54 39 43 43 39 36 37 38 32 25 20 22
121 116 120 120 121 119 116 113 112 112 104 89 71 69 77 82 81 81 98 114 91 79 75 76 75 72 67 62 61 59 58 56 47 41 40 35 30 28 29 28 32 17 12
123 123 120 119 120 118 117 114 111 109 107 108 110 100 97 104 97 76 76 81 81 79 77 75 72 72 70 66 61 59 56 52 42 35 43 32 27 24 21 19 34 26 345
107 107 119 123 122 122 122 119 117 117 116 116 113 115 132 138 116 108 99 82 81 81 81 81 76 70 67 65 67 62 63 61 52 42 42 33 26 19 20 12 9 3 2
120 120 126 126 120 118 117 116 118 120 116 111 102 81 40 106 100 96 91 85 79 80 79 78 81 80 72 60 57 60 55 53 47 39 37 26 18 10 359 0 359 353 359
124 127 123 115 114 114 115 120 122 119 120 118 118 121 113 118 101 96 92 89 85 83 83 77 74 70 58 57 52 43 42 42 33 19 15 6 356 351 351 354 356 349 349
121 120 117 114 113 120 126 121 123 125 124 123 124 126 130 111 101 96 94 92 88 85 83 80 72 68 67 57 43 31 19 22 12 358 337 333 339 344 347 351 339 333 345
123 122 122 123 128 132 127 128 129 127 125 124 121 119 116 110 106 103 105 104 105 101 95 87 78 71 56 39 34 45 35 10 339 332 324 320 324 332 334 333 330 338 335
125 126 128 131 135 136 135 135 131 128 126 125 126 125 123 123 123 124 120 119 124 116 111 107 101 92 69 35 24 44 53 22 345 330 303 296 311 319 319 321 324 323 323
126 129 132 135 136 140 142 141 138 137 136 135 134 132 134 137 137 139 142 149 158 151 165 160 130 103 238 266 67 70 84 354 319 313 303 298 301 310 316 310 315 311 314